User: anonymous   Login
Location: Writing-on-Stone Provincial Park
(49.0825°N, 111.6163°W)
Time: 16:17:17
(UTC-06:00)
Language:

BREEZE-M DEB (TANK) - Orbit

View from above orbital plane
View from above orbital plane
View from above satellite
View from above satellite

Ground track
Ground track

The orbit data is extracted from the following two-line orbital elements,

1 29649U 06056B   16275.41579810  .00002214  00000-0  49783-3 0  9996
2 29649  49.5116  62.8145 5380498   0.0392 359.9399  4.98859068174843
Epoch (UTC): 01 October 2016 09:58:44
Eccentricity: 0.5380498
inclination: 49.5116°
perigee height: 305 km
apogee height: 15874 km
right ascension of ascending node: 62.8145°
argument of perigee: 0.0392°
revolutions per day: 4.98859068
mean anomaly at epoch: 359.9399°
orbit number at epoch: 17484

The dashed part of the orbit path shows where the satellite is in the earth's shadow,  

DLR